Weather in Покровка

Kyrgyzstan     42°43′46″N   71°36′29″E
temp.,
°C
wind,
m/s
gust,
m/s
humid.,
%
clouds,
%
prec.,
mm/h
press.,
hPa
HPBL,
m
17 april, sat
sat1700:00+12se45625 0.2 101865
03:00+11se45573 0.0 101763
06:00+10se33520 0.0 101827
09:00+15sse2341100 0.0 1019238
12:00+19wnw333015 0.0 10181811
15:00+20nnw443032 0.0 10172348
18:00+19nnw4333100 0.0 10171573
21:00+14ne1248100 0.0 101914
18 april, sun
sun1800:00+13nnw1148100 0.0 101812
03:00+12wsw115172 0.0 101810
06:00+11ssw1155100 0.0 101812
09:00+15s2246100 0.0 1020224
12:00+18sw4538100 0.0 10191986
15:00+17sse4637100 0.0 10192028
18:00+15sse675097 0.1 1020540
21:00+12se686367 0.0 1021170
19 april, mon
mon1900:00+11se812575 0.0 1020222
03:00+11se6105091 0.0 1019151
06:00+10se5848100 0.0 1019112
09:00+14se6842100 0.0 1019287
12:00+19sse1324100 0.0 10161806
15:00+21wnw252197 0.0 10143173
18:00+20nnw2426100 0.0 10132638
21:00+15n114098 0.0 101411
20 april, tue
tue2000:00+13s1145100 0.0 101311
03:00+12se2246100 0.0 101222
06:00+11se3347100 0.0 101125
09:00+14wnw2243100 0.0 1012326
12:00+16nw4444100 0.0 10111190
15:00+16nnw7549100 0.1 10111648
18:00+11nnw5680100 0.3 1012628
21:00+9nnw4594100 4.4 1013435
21 april, wed
wed2100:00+5nnw6796100 9.1 1015519
03:00+2nw5599100 3.2 1018329
06:000nw4599100 6.4 1020229
09:00−1nw3497100 2.9 1024354
12:000nnw3496100 4.3 1025501
15:00+1n4593100 0.9 1026549
18:00+1n4492100 1.9 1028455
21:000nw129491 0.6 1030222